Time,TemperatureF,DewpointF,PressureIn,WindDirection,WindDirectionDegrees,WindSpeedMPH,WindSpeedGustMPH,Humidity,HourlyPrecipIn,Conditions,Clouds,dailyrainin,SoftwareType,DateUTC
2014-09-20 00:06:00,67.3,58.0,29.85,WSW,248,4.0,10.0,73,0.00,,,0.00,weatherlink.com 1.10,2014-09-20 05:06:00,
2014-09-20 00:23:00,67.3,58.0,29.85,SW,221,4.0,11.0,73,0.00,,,0.00,weatherlink.com 1.10,2014-09-20 05:23:00,
2014-09-20 00:36:00,67.3,59.0,29.86,SW,235,3.0,10.0,74,0.00,,,0.00,weatherlink.com 1.10,2014-09-20 05:36:00,
2014-09-20 00:51:00,67.1,59.0,29.86,SW,228,7.0,9.0,74,0.00,,,0.00,weatherlink.com 1.10,2014-09-20 05:51:00,
2014-09-20 01:06:00,67.0,59.0,29.87,South,191,3.0,5.0,75,0.00,,,0.00,weatherlink.com 1.10,2014-09-20 06:06:00,
2014-09-20 01:21:00,66.8,59.0,29.88,SSW,210,2.0,6.0,75,0.00,,,0.00,weatherlink.com 1.10,2014-09-20 06:21:00,
2014-09-20 01:36:00,66.6,59.0,29.87,SSE,158,2.0,5.0,76,0.00,,,0.00,weatherlink.com 1.10,2014-09-20 06:36:00,
2014-09-20 01:51:00,66.4,59.0,29.87,SW,221,2.0,6.0,77,0.00,,,0.00,weatherlink.com 1.10,2014-09-20 06:51:00,
2014-09-20 02:06:00,66.6,59.0,29.87,SSE,162,3.0,7.0,77,0.00,,,0.00,weatherlink.com 1.10,2014-09-20 07:06:00,
2014-09-20 02:22:00,66.7,59.0,29.86,SSW,200,2.0,5.0,77,0.00,,,0.00,weatherlink.com 1.10,2014-09-20 07:22:00,
2014-09-20 02:37:00,66.6,59.0,29.86,SW,219,3.0,8.0,77,0.00,,,0.00,weatherlink.com 1.10,2014-09-20 07:37:00,
2014-09-20 02:52:00,66.6,60.0,29.85,SSW,204,5.0,7.0,78,0.00,,,0.00,weatherlink.com 1.10,2014-09-20 07:52:00,
2014-09-20 03:07:00,66.4,59.0,29.84,South,180,3.0,8.0,78,0.00,,,0.00,weatherlink.com 1.10,2014-09-20 08:07:00,
2014-09-20 03:22:00,66.3,60.0,29.84,WSW,249,2.0,8.0,79,0.00,,,0.00,weatherlink.com 1.10,2014-09-20 08:22:00,
2014-09-20 03:37:00,66.3,60.0,29.84,WSW,246,4.0,11.0,79,0.00,,,0.00,weatherlink.com 1.10,2014-09-20 08:37:00,
2014-09-20 03:52:00,66.3,60.0,29.84,SSE,165,2.0,6.0,80,0.00,,,0.00,weatherlink.com 1.10,2014-09-20 08:52:00,
2014-09-20 04:07:00,66.2,60.0,29.84,SW,232,4.0,6.0,80,0.00,,,0.00,weatherlink.com 1.10,2014-09-20 09:07:00,
2014-09-20 04:23:00,66.8,61.0,29.87,SSW,208,3.0,10.0,81,0.00,,,0.00,weatherlink.com 1.10,2014-09-20 09:23:00,
2014-09-20 04:37:00,67.3,61.0,29.87,West,278,4.0,7.0,80,0.00,,,0.00,weatherlink.com 1.10,2014-09-20 09:37:00,
2014-09-20 04:52:00,66.8,60.0,29.87,West,269,4.0,7.0,80,0.00,,,0.00,weatherlink.com 1.10,2014-09-20 09:52:00,
2014-09-20 05:07:00,66.6,61.0,29.86,WSW,248,2.0,7.0,81,0.00,,,0.00,weatherlink.com 1.10,2014-09-20 10:07:00,
2014-09-20 05:22:00,66.7,61.0,29.88,WSW,253,5.0,8.0,82,0.00,,,0.00,weatherlink.com 1.10,2014-09-20 10:22:00,
2014-09-20 05:37:00,66.9,61.0,29.87,SSW,194,1.0,4.0,82,0.00,,,0.00,weatherlink.com 1.10,2014-09-20 10:37:00,
2014-09-20 05:53:00,66.7,61.0,29.86,SSW,210,0.0,5.0,82,0.00,,,0.00,weatherlink.com 1.10,2014-09-20 10:53:00,
2014-09-20 06:07:00,66.5,61.0,29.86,SSW,211,2.0,5.0,83,0.00,,,0.00,weatherlink.com 1.10,2014-09-20 11:07:00,
2014-09-20 06:22:00,66.2,61.0,29.88,WSW,255,7.0,7.0,84,0.00,,,0.00,weatherlink.com 1.10,2014-09-20 11:22:00,
2014-09-20 06:37:00,65.6,61.0,29.85,SW,232,2.0,4.0,85,0.00,,,0.00,weatherlink.com 1.10,2014-09-20 11:37:00,
2014-09-20 06:52:00,65.3,61.0,29.85,SSE,160,2.0,4.0,86,0.00,,,0.00,weatherlink.com 1.10,2014-09-20 11:52:00,
2014-09-20 07:07:00,65.1,61.0,29.84,WSW,250,1.0,6.0,87,0.00,,,0.00,weatherlink.com 1.10,2014-09-20 12:07:00,
2014-09-20 07:22:00,65.2,62.0,29.83,SSE,152,3.0,8.0,88,0.00,,,0.00,weatherlink.com 1.10,2014-09-20 12:22:00,
2014-09-20 07:39:00,64.9,61.0,29.82,South,183,2.0,4.0,88,0.00,,,0.00,weatherlink.com 1.10,2014-09-20 12:39:00,
2014-09-20 07:52:00,65.0,62.0,29.81,SW,217,3.0,8.0,89,0.00,,,0.00,weatherlink.com 1.10,2014-09-20 12:52:00,
2014-09-20 08:07:00,65.1,62.0,29.80,West,262,8.0,8.0,89,0.00,,,0.00,weatherlink.com 1.10,2014-09-20 13:07:00,
2014-09-20 08:22:00,65.0,62.0,29.80,SSE,158,5.0,10.0,90,0.00,,,0.00,weatherlink.com 1.10,2014-09-20 13:22:00,
2014-09-20 08:37:00,65.3,62.0,29.80,SSE,165,1.0,8.0,89,0.00,,,0.00,weatherlink.com 1.10,2014-09-20 13:37:00,
2014-09-20 08:52:00,65.7,62.0,29.81,South,170,3.0,8.0,89,0.00,,,0.00,weatherlink.com 1.10,2014-09-20 13:52:00,
2014-09-20 09:07:00,66.4,63.0,29.82,WSW,253,4.0,11.0,89,0.00,,,0.00,weatherlink.com 1.10,2014-09-20 14:07:00,
2014-09-20 09:22:00,67.3,64.0,29.81,WSW,248,3.0,10.0,88,0.00,,,0.00,weatherlink.com 1.10,2014-09-20 14:22:00,
2014-09-20 09:37:00,68.0,64.0,29.82,WSW,239,2.0,9.0,86,0.00,,,0.00,weatherlink.com 1.10,2014-09-20 14:37:00,
2014-09-20 09:52:00,68.4,64.0,29.81,SSW,204,1.0,7.0,86,0.00,,,0.00,weatherlink.com 1.10,2014-09-20 14:52:00,
2014-09-20 10:07:00,69.1,65.0,29.80,SW,222,2.0,9.0,85,0.00,,,0.00,weatherlink.com 1.10,2014-09-20 15:07:00,
2014-09-20 10:22:00,70.2,65.0,29.81,West,263,5.0,7.0,84,0.00,,,0.00,weatherlink.com 1.10,2014-09-20 15:22:00,
2014-09-20 10:37:00,71.1,65.0,29.82,West,271,2.0,10.0,82,0.00,,,0.00,weatherlink.com 1.10,2014-09-20 15:37:00,
2014-09-20 10:52:00,72.0,66.0,29.83,SW,226,9.0,11.0,81,0.00,,,0.00,weatherlink.com 1.10,2014-09-20 15:52:00,
2014-09-20 11:07:00,73.1,66.0,29.83,SW,236,4.0,11.0,79,0.00,,,0.00,weatherlink.com 1.10,2014-09-20 16:07:00,
2014-09-20 11:23:00,74.0,67.0,29.83,West,281,6.0,10.0,78,0.00,,,0.00,weatherlink.com 1.10,2014-09-20 16:23:00,
2014-09-20 11:38:00,74.5,67.0,29.83,West,259,9.0,12.0,77,0.00,,,0.00,weatherlink.com 1.10,2014-09-20 16:38:00,
2014-09-20 11:53:00,74.7,67.0,29.84,WSW,248,11.0,-999.0,76,-99.99,,,0.00,weatherlink.com 1.10,2014-09-20 16:53:00,
2014-09-20 12:08:00,75.1,67.0,29.83,SSW,194,2.0,10.0,76,0.00,,,0.00,weatherlink.com 1.10,2014-09-20 17:08:00,
2014-09-20 12:23:00,75.5,67.0,29.83,WNW,284,8.0,8.0,74,0.00,,,0.00,weatherlink.com 1.10,2014-09-20 17:23:00,
2014-09-20 12:38:00,72.4,67.0,29.85,WSW,249,11.0,20.0,82,0.19,,,0.19,weatherlink.com 1.10,2014-09-20 17:38:00,
2014-09-20 12:53:00,69.0,66.0,29.84,West,278,9.0,16.0,91,0.39,,,0.39,weatherlink.com 1.10,2014-09-20 17:53:00,
2014-09-20 13:08:00,69.2,67.0,29.83,West,266,5.0,12.0,92,0.57,,,0.57,weatherlink.com 1.10,2014-09-20 18:08:00,
2014-09-20 13:23:00,69.6,67.0,29.84,WSW,250,10.0,12.0,91,0.58,,,0.58,weatherlink.com 1.10,2014-09-20 18:23:00,
2014-09-20 13:38:00,69.8,67.0,29.83,WNW,284,7.0,11.0,91,0.42,,,0.62,weatherlink.com 1.10,2014-09-20 18:38:00,
2014-09-20 13:53:00,70.4,68.0,29.83,West,269,6.0,8.0,91,0.25,,,0.64,weatherlink.com 1.10,2014-09-20 18:53:00,
2014-09-20 14:09:00,70.6,68.0,29.83,West,273,3.0,7.0,91,0.07,,,0.64,weatherlink.com 1.10,2014-09-20 19:09:00,
2014-09-20 14:23:00,70.7,68.0,29.83,WNW,287,5.0,8.0,92,0.06,,,0.65,weatherlink.com 1.10,2014-09-20 19:23:00,
2014-09-20 14:38:00,70.9,68.0,29.80,WSW,246,0.0,5.0,91,0.04,,,0.66,weatherlink.com 1.10,2014-09-20 19:38:00,